N4DCI Weather Reports


Display with metric or nautical units.
time (UTC)temp
F
wind
direction
speed
MPH
gust
MPH
rain 1hr
in
rain 24hr
in
rain mn
in
humidity
%
barometer
mb
20260505083005 47 184 0.0 1.0 0.00 0.00 0.00 82 1017.2
20260505081500 47 185 0.0 2.0 0.00 0.00 0.00 82 1017.0
20260505080002 47 192 0.0 1.0 0.00 0.00 0.00 82 1016.9
20260505074506 47 193 0.0 3.0 0.00 0.00 0.00 82 1016.9
20260505073005 47 161 0.0 1.0 0.00 0.00 0.00 82 1016.9
20260505071505 48 161 0.0 2.0 0.00 0.00 0.00 81 1017.1
20260505070006 48 162 1.0 2.0 0.00 0.00 0.00 81 1017.1
20260505064504 49 162 0.0 2.0 0.00 0.00 0.00 81 1017.3
20260505063000 49 162 0.0 0.0 0.00 0.00 0.00 79 1017.4
20260505061500 50 162 1.0 2.0 0.00 0.00 0.00 78 1017.5
20260505060002 50 168 0.0 2.0 0.00 0.00 0.00 78 1017.6
20260505054459 50 101 0.0 2.0 0.00 0.00 0.00 78 1017.6
20260505052959 51 101 0.0 2.0 0.00 0.00 0.00 77 1017.6
20260505051505 52 101 0.0 2.0 0.00 0.00 0.00 75 1017.7
20260505041505 55 101 0.0 2.0 0.00 0.00 0.00 69 1017.5
20260505034505 51 35 0.0 2.0 0.00 0.00 0.00 76 1017.7
20260505033004 52 35 0.0 0.0 0.00 0.00 0.00 74 1017.9
20260505030006 53 35 0.0 0.0 0.00 0.00 0.00 71 1017.9
20260505024505 54 35 0.0 2.0 0.00 0.00 0.00 70 1017.9
20260505023005 55 35 0.0 0.0 0.00 0.00 0.00 67 1017.9
20260505021505 56 35 0.0 0.0 0.00 0.00 0.00 67 1017.9
20260505020004 57 35 0.0 0.0 0.00 0.00 0.00 65 1017.7
20260505014504 57 35 0.0 0.0 0.00 0.00 0.00 63 1017.5
20260505013004 59 35 0.0 0.0 0.00 0.00 0.00 60 1017.4
20260505010006 61 35 0.0 0.0 0.00 0.00 0.00 54 1017.1
20260505004505 63 35 0.0 0.0 0.00 0.00 0.00 50 1017.0
20260505003005 65 35 0.0 4.0 0.00 0.00 0.00 48 1016.9
20260505001505 65 355 1.0 6.0 0.00 0.00 0.00 46 1016.8
20260505000005 66 331 1.0 6.0 0.00 0.00 0.00 45 1016.8
20260504234504 67 5 3.0 10.0 0.00 0.00 0.00 45 1016.6
20260504233004 68 13 3.0 11.0 0.00 0.00 0.00 46 1016.5
20260504231505 69 355 4.0 10.0 0.00 0.00 0.00 45 1016.4
20260504230005 69 16 3.0 12.0 0.00 0.00 0.00 43 1016.3
20260504223005 71 340 4.0 11.0 0.00 0.00 0.00 41 1016.3
20260504221504 71 83 2.0 12.0 0.00 0.00 0.00 40 1016.3
20260504220006 72 24 4.0 11.0 0.00 0.00 0.00 39 1016.3
20260504214505 73 78 3.0 7.0 0.00 0.00 0.00 37 1016.2
20260504213005 73 63 4.0 10.0 0.00 0.00 0.00 37 1016.2
20260504211504 74 69 5.0 12.0 0.00 0.00 0.00 37 1016.2
20260504204504 73 64 2.0 9.0 0.00 0.00 0.00 33 1016.5
20260504201504 71 30 5.0 10.0 0.00 0.00 0.00 33 1016.8
20260504200004 70 360 3.0 6.0 0.00 0.00 0.00 34 1016.9
20260504194501 71 44 4.0 11.0 0.00 0.00 0.00 32 1017.2
20260504193004 72 93 3.0 9.0 0.00 0.00 0.00 35 1017.3
20260504191504 72 92 6.0 11.0 0.00 0.00 0.00 32 1017.4
20260504190005 73 264 1.0 10.0 0.00 0.00 0.00 32 1017.5
20260504184501 74 275 3.0 7.0 0.00 0.00 0.00 29 1017.6
20260504183004 74 82 1.0 4.0 0.00 0.00 0.00 32 1017.6
20260504181505 74 5 2.0 5.0 0.00 0.00 0.00 29 1017.7
20260504180005 72 204 1.0 6.0 0.00 0.00 0.00 30 1017.9
20260504174505 71 59 3.0 4.0 0.00 0.00 0.00 30 1018.2
20260504173005 71 98 3.0 7.0 0.00 0.00 0.00 29 1018.5
20260504171504 72 19 1.0 8.0 0.00 0.00 0.00 33 1018.5